Location: Archemont
(49.1579°N, 1.7598°E)
Time: 10:04:25
(UTC+00:00)

deb Explorer IX - Pass Details

Date: 13 April 2024
Orbit: 513 x 891 km, 38.7° (Epoch: 23 May)

Event Time Altitude Azimuth Distance (km) Brightness Sun altitude
Rises 19:01:10 0° 261° (W) 3,334 ? -3.7°
Reaches altitude 10° 19:06:11 10° 224° (SW) 2,280 ? -4.5°
Maximum altitude 19:07:09 10° 213° (SSW) 2,223 ? -4.6°
Drops below altitude 10° 19:08:05 10° 203° (SSW) 2,230 ? -4.7°
Sets 19:12:41 0° 163° (SSE) 3,016 ? -5.4°
